When you browse on this site, cookies collect data to enhance your experience and personalize the content and advertising you see.
Visit our Privacy Policy to learn more. By continuing to use the site, you agree to this use of cookies and data.
  • en France
  • Liste des pays
  • À 7 jours
  • Température de l'eau
  • Carte météo
  • Widgets météo
  • user-avatar
    Se connecter

    Météo par heure à Nantes

    Ce jour, 9 Avril, Jeudi

    Heure Température Précipitation Vent Pression Humidité
    00:00 +12°C° 0 mm 1 m/s 765 mmHg 91%
    01:00 +12°C° 0 mm 1 m/s 765 mmHg 91%
    02:00 +12°C° 0 mm 1 m/s 764 mmHg 92%
    03:00 +12°C° 0 mm 1 m/s 764 mmHg 92%
    04:00 +12°C° 0 mm 1 m/s 764 mmHg 92%
    05:00 +12°C° 0 mm 2 m/s 764 mmHg 92%
    06:00 +12°C° 0 mm 2 m/s 764 mmHg 92%
    07:00 +14°C° 0 mm 2 m/s 764 mmHg 87%
    08:00 +16°C° 0 mm 2 m/s 764 mmHg 83%
    09:00 +18°C° 0 mm 3 m/s 764 mmHg 78%
    10:00 +19°C° 0 mm 3 m/s 764 mmHg 74%
    11:00 +20°C° 0 mm 3 m/s 764 mmHg 70%
    12:00 +22°C° 0 mm 3 m/s 764 mmHg 65%
    13:00 +22°C° 0.1 mm 3 m/s 764 mmHg 65%
    14:00 +22°C° 0.1 mm 3 m/s 764 mmHg 65%
    15:00 +22°C° 0.1 mm 3 m/s 763 mmHg 65%
    16:00 +21°C° 0.1 mm 2 m/s 763 mmHg 70%
    17:00 +20°C° 0.1 mm 2 m/s 763 mmHg 74%
    18:00 +19°C° 0.1 mm 2 m/s 763 mmHg 78%
    19:00 +18°C° 0 mm 2 m/s 763 mmHg 80%
    20:00 +17°C° 0 mm 2 m/s 764 mmHg 83%
    21:00 +15°C° 0 mm 2 m/s 764 mmHg 85%
    22:00 +14°C° 0 mm 3 m/s 764 mmHg 83%
    23:00 +13°C° 0 mm 3 m/s 764 mmHg 82%

    Demain, 10 Avril, Vendredi

    Heure Température Précipitation Vent Pression Humidité
    00:00 +12°C° 0 mm 3 m/s 764 mmHg 81%
    01:00 +12°C° 0 mm 3 m/s 764 mmHg 83%
    02:00 +11°C° 0 mm 3 m/s 764 mmHg 85%
    03:00 +11°C° 0 mm 3 m/s 763 mmHg 87%
    04:00 +10°C° 0 mm 3 m/s 764 mmHg 88%
    05:00 +10°C° 0 mm 3 m/s 764 mmHg 89%
    06:00 +10°C° 0 mm 3 m/s 764 mmHg 89%
    07:00 +12°C° 0 mm 3 m/s 764 mmHg 83%
    08:00 +16°C° 0 mm 3 m/s 764 mmHg 76%
    09:00 +18°C° 0 mm 3 m/s 764 mmHg 69%
    10:00 +19°C° 0 mm 3 m/s 764 mmHg 64%
    11:00 +21°C° 0 mm 3 m/s 764 mmHg 58%
    12:00 +22°C° 0 mm 3 m/s 764 mmHg 52%
    13:00 +22°C° 0 mm 3 m/s 764 mmHg 54%
    14:00 +22°C° 0 mm 3 m/s 763 mmHg 55%
    15:00 +24°C° 0 mm 3 m/s 763 mmHg 57%
    16:00 +22°C° 0 mm 3 m/s 763 mmHg 63%
    17:00 +21°C° 0 mm 2 m/s 763 mmHg 69%
    18:00 +20°C° 0 mm 2 m/s 763 mmHg 76%
    19:00 +18°C° 0 mm 2 m/s 763 mmHg 77%
    20:00 +17°C° 0 mm 2 m/s 763 mmHg 79%
    21:00 +15°C° 0 mm 2 m/s 764 mmHg 81%
    22:00 +15°C° 0 mm 2 m/s 764 mmHg 83%
    23:00 +14°C° 0 mm 2 m/s 764 mmHg 84%

    Après-demain, 11 Avril, Samedi

    Heure Température Précipitation Vent Pression Humidité
    00:00 +13°C° 0 mm 2 m/s 764 mmHg 85%
    01:00 +13°C° 0 mm 2 m/s 763 mmHg 87%
    02:00 +12°C° 0 mm 2 m/s 763 mmHg 88%
    03:00 +12°C° 0 mm 2 m/s 763 mmHg 89%
    04:00 +12°C° 0 mm 2 m/s 763 mmHg 87%
    05:00 +10°C° 0 mm 2 m/s 763 mmHg 85%
    06:00 +10°C° 0 mm 2 m/s 763 mmHg 83%
    07:00 +13°C° 0 mm 2 m/s 763 mmHg 77%
    08:00 +15°C° 0 mm 2 m/s 763 mmHg 71%
    09:00 +17°C° 0 mm 2 m/s 764 mmHg 65%
    10:00 +18°C° 0 mm 2 m/s 763 mmHg 61%
    11:00 +20°C° 0 mm 2 m/s 763 mmHg 56%
    12:00 +21°C° 0 mm 2 m/s 763 mmHg 52%
    13:00 +21°C° 0 mm 2 m/s 763 mmHg 52%
    14:00 +21°C° 0 mm 2 m/s 763 mmHg 52%
    15:00 +21°C° 0 mm 2 m/s 762 mmHg 52%
    16:00 +20°C° 0 mm 2 m/s 762 mmHg 59%
    17:00 +20°C° 0 mm 1 m/s 762 mmHg 65%
    18:00 +19°C° 0 mm 1 m/s 762 mmHg 72%
    19:00 +16°C° 0 mm 1 m/s 762 mmHg 75%
    20:00 +14°C° 0 mm 1 m/s 762 mmHg 79%
    21:00 +13°C° 0 mm 2 m/s 763 mmHg 82%
    22:00 +13°C° 0.1 mm 2 m/s 763 mmHg 84%
    23:00 +12°C° 0.1 mm 2 m/s 763 mmHg 86%

    12 Avril, Dimanche

    Heure Température Précipitation Vent Pression Humidité
    00:00 +12°C° 0.1 mm 1 m/s 763 mmHg 88%
    01:00 +12°C° 0 mm 1 m/s 762 mmHg 88%
    02:00 +12°C° 0 mm 1 m/s 762 mmHg 88%
    03:00 +12°C° 0 mm 1 m/s 761 mmHg 89%
    04:00 +12°C° 0 mm 1 m/s 761 mmHg 89%
    05:00 +12°C° 0 mm 1 m/s 760 mmHg 90%
    06:00 +12°C° 0 mm 1 m/s 760 mmHg 90%
    07:00 +13°C° 0 mm 1 m/s 760 mmHg 87%
    08:00 +15°C° 0 mm 2 m/s 760 mmHg 84%
    09:00 +16°C° 0 mm 2 m/s 759 mmHg 80%
    10:00 +17°C° 0.4 mm 3 m/s 759 mmHg 80%
    11:00 +17°C° 0.4 mm 4 m/s 758 mmHg 80%
    12:00 +17°C° 0.4 mm 5 m/s 758 mmHg 79%
    13:00 +17°C° 0.4 mm 5 m/s 757 mmHg 80%
    14:00 +16°C° 0.4 mm 5 m/s 757 mmHg 81%
    15:00 +16°C° 0.4 mm 5 m/s 756 mmHg 82%
    16:00 +15°C° 0.1 mm 4 m/s 755 mmHg 85%
    17:00 +14°C° 0.1 mm 4 m/s 755 mmHg 87%
    18:00 +14°C° 0.1 mm 3 m/s 755 mmHg 90%
    19:00 +12°C° 0 mm 3 m/s 755 mmHg 92%
    20:00 +11°C° 0 mm 3 m/s 755 mmHg 95%
    21:00 +10°C° 0 mm 3 m/s 755 mmHg 98%
    22:00 +10°C° 0 mm 3 m/s 755 mmHg 98%
    23:00 +12°C° 0 mm 2 m/s 754 mmHg 98%

    13 Avril, Lundi

    Heure Température Précipitation Vent Pression Humidité
    00:00 +12°C° 0 mm 2 m/s 754 mmHg 98%
    01:00 +11°C° 0 mm 3 m/s 754 mmHg 98%
    02:00 +11°C° 0 mm 3 m/s 754 mmHg 98%
    03:00 +11°C° 0 mm 3 m/s 754 mmHg 97%
    04:00 +11°C° 0 mm 3 m/s 754 mmHg 97%
    05:00 +11°C° 0 mm 4 m/s 754 mmHg 97%
    06:00 +11°C° 0 mm 4 m/s 754 mmHg 96%
    07:00 +11°C° 0.2 mm 4 m/s 754 mmHg 95%
    08:00 +12°C° 0.2 mm 4 m/s 754 mmHg 93%
    09:00 +12°C° 0.2 mm 5 m/s 755 mmHg 92%
    10:00 +13°C° 0.2 mm 5 m/s 755 mmHg 90%
    11:00 +13°C° 0.2 mm 5 m/s 755 mmHg 88%
    12:00 +14°C° 0.2 mm 5 m/s 756 mmHg 87%
    13:00 +15°C° 0.1 mm 4 m/s 755 mmHg 84%
    14:00 +15°C° 0.1 mm 4 m/s 755 mmHg 81%
    15:00 +17°C° 0.1 mm 4 m/s 755 mmHg 77%
    16:00 +17°C° 0 mm 4 m/s 755 mmHg 79%
    17:00 +17°C° 0 mm 4 m/s 755 mmHg 81%
    18:00 +17°C° 0 mm 4 m/s 756 mmHg 83%
    19:00 +15°C° 0 mm 4 m/s 756 mmHg 85%
    20:00 +14°C° 0 mm 5 m/s 756 mmHg 87%
    21:00 +13°C° 0 mm 5 m/s 757 mmHg 88%
    22:00 +13°C° 0 mm 6 m/s 757 mmHg 90%
    23:00 +11°C° 0 mm 6 m/s 757 mmHg 91%

    14 Avril, Mardi

    Heure Température Précipitation Vent Pression Humidité
    00:00 +11°C° 0 mm 6 m/s 757 mmHg 92%
    01:00 +10°C° 0 mm 6 m/s 757 mmHg 92%
    02:00 +10°C° 0 mm 6 m/s 757 mmHg 92%
    03:00 +10°C° 0 mm 6 m/s 756 mmHg 93%
    04:00 +9°C° 0 mm 7 m/s 756 mmHg 90%
    05:00 +9°C° 0 mm 7 m/s 756 mmHg 88%
    06:00 +9°C° 0 mm 8 m/s 756 mmHg 86%
    07:00 +10°C° 0 mm 8 m/s 756 mmHg 85%
    08:00 +10°C° 0 mm 8 m/s 756 mmHg 83%
    09:00 +11°C° 0 mm 8 m/s 755 mmHg 82%
    10:00 +12°C° 0 mm 8 m/s 755 mmHg 79%
    11:00 +15°C° 0 mm 7 m/s 755 mmHg 77%
    12:00 +17°C° 0 mm 7 m/s 755 mmHg 74%
    13:00 +17°C° 0.1 mm 8 m/s 754 mmHg 74%
    14:00 +17°C° 0.1 mm 8 m/s 753 mmHg 74%
    15:00 +18°C° 0.1 mm 8 m/s 753 mmHg 74%
    16:00 +17°C° 0.2 mm 7 m/s 752 mmHg 76%
    17:00 +16°C° 0.2 mm 7 m/s 752 mmHg 79%
    18:00 +16°C° 0.2 mm 6 m/s 752 mmHg 81%
    19:00 +15°C° 0.6 mm 7 m/s 752 mmHg 83%
    20:00 +14°C° 0.6 mm 7 m/s 752 mmHg 84%
    21:00 +12°C° 0.6 mm 8 m/s 752 mmHg 86%
    22:00 +12°C° 0.6 mm 7 m/s 752 mmHg 88%
    23:00 +11°C° 0.6 mm 6 m/s 752 mmHg 89%
    Voir plus